TimeAKST,TemperatureF,Dew PointF,Humidity,Sea Level PressureIn,VisibilityMPH,Wind Direction,Wind SpeedMPH,Gust SpeedMPH,PrecipitationIn,Events,Conditions,WindDirDegrees,DateUTC
12:53 AM,-7.1,-18.0,59,29.68,10.0,NE,8.1,-,N/A,,Partly Cloudy,40,2012-11-18 09:53:00
1:53 AM,-6.0,-17.0,59,29.68,10.0,ENE,3.5,-,N/A,,Partly Cloudy,70,2012-11-18 10:53:00
2:53 AM,-6.0,-18.0,56,29.68,10.0,NE,8.1,-,N/A,,Partly Cloudy,50,2012-11-18 11:53:00
3:53 AM,-9.0,-18.9,62,29.69,10.0,ENE,5.8,-,N/A,,Partly Cloudy,70,2012-11-18 12:53:00
4:53 AM,-8.0,-18.9,59,29.70,10.0,NE,10.4,-,N/A,,Partly Cloudy,40,2012-11-18 13:53:00
5:53 AM,-7.1,-18.9,56,29.71,10.0,NNE,9.2,-,N/A,,Partly Cloudy,30,2012-11-18 14:53:00
6:53 AM,-2.9,-17.0,51,29.72,10.0,North,6.9,-,N/A,,Partly Cloudy,10,2012-11-18 15:53:00
7:53 AM,-7.1,-18.9,56,29.73,10.0,NNE,6.9,-,N/A,,Partly Cloudy,30,2012-11-18 16:53:00
8:53 AM,-6.0,-17.0,59,29.75,10.0,NNE,8.1,-,N/A,,Scattered Clouds,20,2012-11-18 17:53:00
9:53 AM,-6.0,-18.0,56,29.77,10.0,NNE,10.4,-,N/A,,Partly Cloudy,30,2012-11-18 18:53:00
10:53 AM,-2.0,-17.0,49,29.78,10.0,NNE,12.7,-,N/A,,Partly Cloudy,20,2012-11-18 19:53:00
11:53 AM,-2.0,-16.1,51,29.79,10.0,NNE,13.8,-,N/A,,Partly Cloudy,30,2012-11-18 20:53:00
12:53 PM,-0.9,-16.1,49,29.80,10.0,NNE,13.8,-,N/A,,Scattered Clouds,20,2012-11-18 21:53:00
1:53 PM,-0.9,-15.0,52,29.81,10.0,NNE,11.5,-,N/A,,Mostly Cloudy,20,2012-11-18 22:53:00
2:53 PM,-0.9,-16.1,49,29.81,10.0,NNE,16.1,-,N/A,,Mostly Cloudy,20,2012-11-18 23:53:00
3:53 PM,-2.9,-17.0,51,29.83,10.0,NNE,11.5,-,N/A,,Mostly Cloudy,20,2012-11-19 00:53:00
4:53 PM,-4.0,-17.0,54,29.84,10.0,North,8.1,-,N/A,,Mostly Cloudy,10,2012-11-19 01:53:00
5:53 PM,-6.0,-18.0,56,29.86,10.0,North,9.2,-,N/A,,Mostly Cloudy,10,2012-11-19 02:53:00
6:53 PM,-6.0,-18.0,56,29.87,10.0,North,8.1,-,N/A,,Scattered Clouds,10,2012-11-19 03:53:00
7:53 PM,-6.0,-18.0,56,29.88,10.0,NNE,3.5,-,N/A,,Partly Cloudy,30,2012-11-19 04:53:00
8:53 PM,-9.9,-20.0,61,29.89,10.0,NE,4.6,-,N/A,,Partly Cloudy,50,2012-11-19 05:53:00
9:53 PM,-15.0,-20.9,75,29.91,10.0,Calm,Calm,-,N/A,,Scattered Clouds,0,2012-11-19 06:53:00
10:53 PM,-14.1,-22.0,68,29.92,10.0,Calm,Calm,-,N/A,,Scattered Clouds,0,2012-11-19 07:53:00
11:53 PM,-16.1,-22.0,74,29.94,10.0,Calm,Calm,-,N/A,,Scattered Clouds,0,2012-11-19 08:53:00